Wind_Speed
25 21 21 22 25 28 30 32 35 34 33 30 29 30 31 31 29 26 25 25 25 25 25 25 24 21 19 19 19 20 21 21 22 22 22 23 23 22 21 21 20 20 20 21
25 23 22 22 22 26 30 32 33 33 30 27 28 30 31 31 30 27 26 26 26 27 26 25 23 22 22 23 24 25 26 25 24 23 23 23 23 23 22 22 22 21 21 21
22 20 20 18 20 22 23 24 27 28 26 25 26 28 29 29 30 30 28 28 28 26 25 23 22 23 25 27 27 27 27 27 25 24 24 24 24 24 24 24 24 24 23 22
21 19 17 16 17 16 16 18 20 21 22 21 21 21 22 24 25 26 26 25 23 22 21 21 23 25 27 27 27 27 26 25 25 24 24 25 25 25 25 25 25 25 25 23
19 16 15 15 13 13 13 12 11 11 11 9 6 6 8 10 13 14 15 15 16 17 19 21 23 24 25 26 26 25 25 25 25 24 24 24 24 25 25 24 24 25 25 24
17 15 14 14 12 11 9 7 6 5 4 3 4 3 3 3 5 6 8 10 13 15 18 20 21 22 23 23 24 25 25 25 26 25 25 25 26 27 27 27 27 25 25 24
17 16 16 15 13 11 11 10 9 8 7 6 6 5 4 3 3 5 7 10 13 15 17 18 19 21 22 23 24 24 25 25 25 26 26 27 28 28 29 29 30 29 28 27
18 19 20 19 17 15 14 14 12 10 8 7 6 5 3 2 4 6 9 11 13 15 16 18 19 21 22 23 23 23 23 22 23 23 24 26 27 28 29 30 30 30 29 28
21 22 22 22 20 17 17 16 13 11 9 7 5 3 1 2 5 8 11 13 14 15 16 18 18 19 21 21 21 20 19 19 19 20 21 23 25 27 28 28 28 28 28 28
26 26 26 25 23 21 19 17 14 11 9 7 6 4 3 4 7 10 13 13 14 15 16 16 18 19 20 19 18 16 16 16 16 17 18 20 21 22 23 24 24 24 25 26
29 28 28 26 25 23 21 18 15 12 9 8 6 5 5 5 7 11 13 13 13 14 15 16 18 19 19 17 14 14 14 14 14 15 17 17 17 15 13 15 17 17 18 19
31 30 28 27 27 26 24 19 15 12 10 8 7 6 7 7 9 11 12 13 13 14 15 17 18 18 17 15 13 13 13 13 14 14 15 15 16 12 6 4 8 9 11 13
32 30 28 27 28 28 26 21 16 12 10 8 8 8 8 8 9 10 12 13 13 14 15 16 17 17 16 15 14 13 12 12 13 14 15 15 15 13 9 4 2 5 7 10
32 30 28 29 30 30 27 22 17 13 10 9 9 9 9 9 9 10 11 12 13 13 14 15 16 16 15 14 13 12 11 11 12 13 14 14 14 12 10 6 2 2 4 7
29 29 29 30 31 31 28 24 18 14 11 11 10 9 8 8 9 10 11 12 12 13 13 14 14 14 14 13 12 11 10 10 11 11 12 13 13 12 10 7 4 1 2 4
25 27 29 31 33 32 30 25 20 16 13 13 11 9 7 8 9 10 11 11 11 12 12 12 12 13 12 12 11 11 10 10 10 11 11 11 11 11 10 8 5 3 1 2
21 25 28 31 33 32 29 25 21 17 16 15 12 8 7 7 8 10 10 11 11 11 10 10 11 11 11 11 11 10 10 10 10 10 10 10 10 10 9 8 6 4 3 1
18 23 27 30 32 31 29 26 22 19 18 16 13 8 6 6 8 9 9 10 10 10 9 9 10 10 11 10 9 9 9 10 10 9 9 9 9 8 8 7 6 5 4 3
17 22 26 29 31 32 30 27 23 20 20 18 13 8 5 5 7 7 8 9 9 9 8 9 9 10 10 10 9 9 10 10 10 9 9 9 8 8 8 8 7 6 5 5
17 21 25 28 31 32 30 25 22 21 21 18 13 9 5 4 5 6 7 8 8 8 7 8 8 8 9 10 10 11 11 11 11 10 10 10 10 10 10 10 9 9 9 8
19 20 24 29 32 32 29 25 22 22 22 18 14 10 7 5 5 4 5 6 7 7 6 7 7 8 9 10 11 12 12 12 13 13 13 12 12 12 12 12 12 12 12 11
20 20 24 30 33 32 28 25 24 24 22 19 15 12 10 8 6 3 3 5 6 6 5 6 6 7 9 10 12 13 13 14 15 15 15 15 15 15 15 15 15 15 14 14
22 21 24 31 34 33 30 27 24 24 22 19 16 15 13 11 8 4 2 3 4 5 5 5 5 6 8 9 11 12 14 15 16 16 17 17 17 18 18 18 18 18 17 17
24 23 25 31 35 35 31 28 25 24 23 21 19 17 16 14 11 7 4 2 3 3 4 4 4 5 7 8 10 11 13 15 16 16 17 17 17 18 18 18 18 18 18 18
26 25 26 31 35 36 33 30 27 26 24 23 21 20 19 17 14 10 6 4 2 1 2 3 4 5 6 8 9 11 12 14 15 15 16 17 17 17 18 18 18 18 18 19
30 28 28 31 35 36 34 32 29 27 26 25 23 22 21 19 16 13 9 7 4 2 1 3 4 5 6 8 9 10 11 12 13 14 14 15 16 16 17 18 18 18 18 18
33 32 31 33 36 37 36 33 31 29 28 26 25 23 22 21 19 15 12 9 7 6 4 4 5 6 6 7 7 8 9 10 10 11 11 12 13 14 15 16 17 17 18 17
Wind_Direction
255 259 251 245 249 254 260 262 265 268 271 272 269 267 267 268 268 268 272 276 281 287 294 299 299 296 295 296 297 298 299 298 294 288 283 280 278 276 273 270 269 269 266 262
252 256 257 254 250 256 261 264 267 271 274 274 267 263 263 265 264 266 272 277 282 287 293 295 295 292 293 297 301 303 302 300 296 288 281 277 275 273 272 270 270 270 268 264
249 251 258 258 251 256 266 270 271 274 277 274 269 266 263 261 262 265 270 274 279 284 289 291 291 291 294 297 300 301 300 298 294 288 281 276 274 272 270 269 269 267 264 261
251 253 263 260 259 266 275 276 276 280 283 280 276 270 264 260 260 263 268 273 277 282 286 288 290 292 295 298 300 299 298 295 291 287 281 277 276 273 270 268 267 265 259 257
251 249 252 258 267 275 277 273 272 275 279 277 280 274 260 256 257 260 267 272 277 282 286 289 291 294 297 299 300 301 300 297 294 290 284 279 276 273 272 270 270 266 258 255
241 237 236 249 260 263 256 222 211 212 211 186 144 151 184 214 240 256 271 278 282 286 290 294 297 299 300 301 302 302 301 299 296 292 287 282 278 275 273 270 268 267 259 255
229 223 226 238 240 232 209 192 186 184 179 172 158 149 163 205 255 281 289 291 292 294 298 302 304 305 306 306 306 304 301 298 295 292 289 285 281 277 273 270 266 263 261 257
225 218 217 227 224 215 204 198 195 194 193 191 186 171 176 254 301 310 310 307 304 304 306 308 310 311 312 312 311 308 304 301 298 295 292 288 284 279 274 269 265 261 258 254
217 215 217 223 222 213 207 204 203 203 203 205 209 204 217 307 320 322 318 314 311 310 312 315 317 319 320 319 315 312 309 306 304 300 298 294 288 282 275 267 260 256 254 252
217 215 215 219 219 214 211 211 209 207 208 216 230 247 280 316 324 323 320 317 316 317 320 323 325 326 325 322 320 319 317 317 315 312 309 306 299 290 276 263 255 251 250 248
221 219 216 215 216 214 212 214 213 211 216 227 239 257 279 306 320 322 322 321 321 323 325 327 328 329 329 330 331 331 330 329 328 327 326 326 323 312 285 258 247 242 242 236
222 221 219 215 217 216 215 215 215 216 224 235 250 266 282 302 318 322 323 322 322 322 325 327 329 332 336 341 343 340 337 336 337 341 345 349 353 353 339 259 231 227 221 217
223 221 219 219 218 216 213 214 214 219 231 248 261 273 285 299 314 322 323 323 322 321 322 325 330 337 343 348 349 345 341 343 348 353 357 1 7 13 22 41 147 188 194 200
223 220 218 217 215 213 212 213 216 223 239 256 267 275 285 297 314 324 325 324 323 320 321 325 333 341 349 351 349 345 345 349 356 1 6 9 12 15 21 31 56 156 191 203
223 220 216 215 213 210 210 212 216 226 244 259 267 274 287 300 316 326 326 324 321 321 322 327 334 344 350 350 347 345 346 351 356 360 4 9 13 16 18 20 20 1 224 220
223 220 216 214 212 210 210 211 217 227 242 254 262 271 288 304 317 325 327 325 323 323 325 330 339 347 349 346 344 344 346 350 354 356 359 3 8 13 17 19 20 17 340 253
225 220 217 214 210 209 207 210 217 227 238 248 253 263 283 304 316 324 329 329 329 329 333 340 349 353 351 346 345 347 350 352 355 358 360 1 2 5 10 16 24 29 29 13
228 222 218 214 211 209 209 211 216 225 234 239 242 250 271 300 315 324 331 335 337 339 346 357 2 1 358 355 354 357 0 1 2 2 0 0 2 3 7 14 22 30 36 34
230 222 217 213 209 206 205 206 212 221 227 229 231 236 258 295 312 322 334 342 346 351 360 8 9 5 3 4 9 12 14 15 15 15 13 13 14 16 20 26 31 35 34 30
235 225 216 211 205 199 199 203 209 217 221 221 219 221 235 270 295 315 340 352 354 1 9 14 13 11 13 20 26 28 28 29 31 33 36 38 39 40 42 44 46 47 46 42
239 230 219 209 198 195 198 203 209 216 218 215 212 212 220 242 265 303 348 2 5 12 18 19 20 23 28 34 36 38 41 44 47 51 53 55 56 56 57 56 55 53 52 49
239 231 219 205 196 197 201 207 212 215 216 212 207 208 213 223 235 268 347 7 14 22 28 31 32 37 42 44 46 50 53 56 58 60 61 61 62 61 60 59 56 54 51 48
235 229 218 203 199 202 206 210 213 215 215 211 207 207 211 216 222 234 296 354 12 25 35 41 44 48 51 53 55 56 58 60 62 62 63 63 62 61 59 57 55 52 49 46
231 228 218 206 202 204 208 211 213 215 215 212 209 209 210 213 218 227 249 305 355 23 37 49 57 60 62 63 63 64 64 65 65 65 65 64 62 60 57 55 53 51 48 45
228 224 218 210 205 205 208 210 213 215 214 211 209 210 211 214 217 224 239 261 295 350 46 72 83 81 80 78 76 74 71 70 69 67 66 64 61 59 56 54 52 50 48 46
225 220 217 211 207 206 207 210 213 214 213 210 209 211 213 215 218 224 234 243 243 226 171 125 113 105 98 93 87 81 77 74 70 67 64 61 58 55 52 50 49 48 47 45
224 217 215 211 207 206 207 210 211 211 211 209 209 212 214 217 220 224 230 233 226 212 191 160 136 124 113 104 95 86 79 72 67 62 58 54 52 49 48 47 46 46 44 43
Height
5761 5762 5763 5765 5767 5768 5769 5768 5768 5769 5770 5773 5772 5771 5771 5771 5771 5771 5771 5771 5770 5769 5768 5766 5764 5762 5761 5760 5758 5757 5756 5755 5753 5752 5751 5750 5750 5750 5750 5750 5750 5751 5752 5752
5756 5757 5758 5760 5762 5762 5761 5761 5761 5762 5762 5763 5761 5761 5761 5762 5763 5764 5764 5764 5763 5762 5762 5760 5758 5756 5755 5754 5752 5750 5749 5747 5746 5745 5744 5743 5743 5743 5744 5744 5744 5745 5745 5746
5750 5751 5752 5754 5755 5755 5756 5756 5754 5753 5753 5752 5751 5751 5751 5753 5754 5756 5757 5757 5757 5756 5756 5754 5752 5751 5749 5747 5745 5743 5741 5739 5738 5737 5736 5736 5736 5736 5737 5737 5738 5738 5739 5740
5743 5746 5747 5749 5749 5750 5750 5749 5747 5745 5744 5743 5742 5741 5742 5744 5747 5748 5750 5751 5751 5751 5750 5749 5747 5745 5742 5740 5738 5736 5734 5732 5730 5729 5729 5728 5728 5728 5729 5729 5730 5731 5732 5734
5737 5740 5741 5743 5744 5744 5744 5743 5742 5741 5739 5737 5736 5736 5737 5739 5741 5743 5745 5746 5746 5746 5745 5743 5741 5738 5736 5734 5731 5729 5726 5724 5722 5721 5721 5721 5721 5721 5721 5722 5722 5723 5724 5726
5731 5734 5736 5738 5739 5739 5740 5740 5739 5738 5737 5735 5734 5735 5737 5738 5739 5740 5741 5742 5742 5741 5739 5737 5735 5733 5730 5728 5725 5723 5720 5717 5715 5714 5713 5712 5712 5712 5713 5713 5714 5715 5716 5718
5725 5728 5730 5733 5734 5736 5738 5738 5736 5736 5735 5735 5734 5734 5736 5737 5738 5738 5738 5738 5737 5735 5733 5731 5729 5727 5725 5722 5719 5716 5714 5711 5708 5706 5705 5704 5703 5703 5703 5704 5705 5706 5708 5710
5720 5723 5727 5727 5729 5732 5733 5733 5734 5734 5734 5734 5734 5733 5733 5734 5735 5735 5734 5733 5732 5730 5729 5727 5724 5722 5719 5716 5713 5710 5707 5704 5702 5699 5697 5695 5694 5693 5693 5693 5695 5696 5698 5701
5713 5718 5720 5722 5725 5728 5729 5731 5732 5733 5733 5734 5734 5733 5732 5732 5732 5732 5731 5729 5728 5726 5725 5723 5720 5717 5714 5711 5708 5705 5702 5699 5696 5693 5691 5688 5685 5683 5682 5683 5684 5686 5688 5691
5705 5710 5714 5717 5721 5724 5727 5729 5730 5731 5732 5733 5733 5732 5731 5730 5729 5729 5728 5726 5725 5723 5721 5719 5716 5713 5710 5707 5704 5700 5697 5694 5691 5688 5685 5681 5677 5674 5672 5672 5674 5676 5679 5682
5698 5703 5708 5713 5717 5721 5724 5727 5728 5729 5730 5731 5732 5731 5730 5728 5727 5726 5725 5723 5722 5720 5718 5716 5713 5710 5707 5703 5700 5697 5694 5691 5688 5685 5681 5677 5671 5666 5663 5664 5667 5669 5672 5675
5693 5697 5703 5708 5712 5716 5720 5724 5726 5727 5729 5730 5730 5730 5729 5727 5726 5724 5723 5721 5720 5718 5716 5714 5711 5708 5704 5701 5698 5695 5693 5690 5687 5684 5680 5675 5670 5665 5662 5661 5663 5666 5669 5672
5687 5693 5699 5704 5707 5712 5717 5721 5723 5725 5727 5728 5728 5728 5728 5726 5724 5723 5721 5719 5718 5716 5714 5712 5709 5705 5702 5699 5696 5694 5692 5689 5686 5683 5679 5675 5671 5668 5665 5664 5664 5666 5668 5671
5681 5688 5694 5698 5703 5708 5713 5718 5721 5723 5725 5726 5727 5727 5726 5725 5723 5721 5719 5718 5716 5714 5712 5710 5707 5704 5700 5698 5696 5694 5692 5689 5686 5683 5680 5677 5674 5671 5669 5668 5667 5668 5669 5671
5678 5684 5689 5693 5698 5704 5710 5715 5719 5722 5723 5724 5725 5725 5725 5723 5721 5719 5718 5716 5715 5713 5711 5708 5706 5703 5700 5698 5696 5694 5691 5689 5687 5684 5682 5679 5676 5674 5672 5670 5670 5670 5670 5671
5675 5680 5685 5689 5694 5700 5706 5712 5716 5719 5721 5723 5724 5724 5723 5722 5720 5718 5717 5715 5714 5712 5709 5707 5704 5702 5700 5698 5696 5694 5691 5689 5687 5685 5682 5681 5679 5676 5674 5673 5672 5671 5671 5671
5673 5677 5681 5685 5690 5697 5703 5709 5713 5716 5719 5721 5722 5722 5721 5720 5719 5717 5716 5714 5712 5711 5708 5706 5704 5702 5700 5698 5696 5694 5691 5689 5687 5685 5683 5681 5680 5678 5676 5675 5673 5673 5672 5672
5670 5674 5678 5682 5687 5693 5700 5705 5710 5713 5716 5718 5720 5720 5719 5719 5718 5717 5715 5713 5712 5710 5708 5706 5704 5702 5701 5698 5696 5694 5691 5689 5687 5685 5684 5682 5681 5680 5678 5676 5675 5674 5673 5673
5667 5670 5674 5679 5684 5690 5696 5702 5706 5710 5713 5715 5717 5717 5717 5717 5717 5716 5714 5713 5711 5710 5708 5706 5704 5703 5702 5699 5697 5694 5692 5690 5688 5686 5685 5683 5682 5681 5679 5678 5676 5675 5674 5674
5664 5667 5671 5675 5681 5687 5693 5698 5702 5706 5709 5712 5713 5714 5715 5716 5716 5716 5714 5713 5711 5710 5708 5707 5706 5705 5703 5701 5698 5696 5694 5692 5690 5688 5687 5685 5684 5682 5681 5680 5678 5677 5676 5675
5661 5664 5667 5672 5677 5684 5690 5695 5699 5703 5705 5708 5710 5712 5713 5715 5715 5715 5714 5713 5712 5711 5709 5708 5708 5706 5704 5703 5701 5699 5697 5695 5693 5691 5689 5688 5686 5685 5684 5682 5681 5680 5678 5677
5658 5660 5663 5668 5674 5680 5686 5691 5695 5699 5702 5705 5707 5709 5711 5713 5714 5715 5714 5714 5713 5712 5711 5710 5709 5708 5707 5705 5704 5702 5700 5698 5697 5695 5693 5691 5690 5688 5687 5686 5684 5683 5681 5680
5654 5656 5660 5664 5670 5676 5682 5687 5691 5695 5698 5701 5704 5707 5709 5712 5713 5714 5714 5714 5714 5713 5712 5712 5711 5710 5709 5708 5707 5705 5704 5702 5700 5698 5697 5695 5694 5692 5691 5690 5688 5687 5685 5683
5649 5652 5655 5660 5666 5672 5678 5683 5687 5690 5694 5698 5701 5704 5707 5710 5712 5713 5713 5714 5714 5714 5713 5713 5712 5712 5711 5710 5709 5708 5707 5705 5704 5702 5701 5700 5698 5697 5696 5694 5692 5691 5689 5687
5644 5647 5651 5655 5661 5667 5673 5678 5682 5686 5690 5694 5698 5702 5705 5708 5710 5712 5713 5713 5714 5714 5714 5714 5713 5713 5713 5712 5711 5710 5710 5708 5707 5706 5705 5704 5703 5701 5700 5698 5696 5694 5692 5690
5638 5642 5645 5650 5656 5662 5667 5672 5677 5681 5685 5690 5694 5698 5702 5705 5708 5710 5711 5712 5713 5714 5714 5714 5714 5714 5714 5714 5713 5713 5712 5711 5711 5710 5709 5708 5707 5705 5703 5702 5700 5698 5696 5694
5631 5635 5639 5644 5650 5656 5662 5667 5672 5676 5680 5685 5690 5695 5699 5702 5705 5707 5709 5711 5712 5713 5714 5714 5715 5715 5715 5715 5715 5715 5715 5714 5714 5713 5712 5711 5710 5709 5707 5705 5704 5702 5699 5697